Flag for Canada Weather past 2 weeks in Gander, Newfoundland and Labrador, Canada

Now
55 °F

Mostly cloudy.


Feels Like: 53 °F
Forecast: 51 / 64 °F
Wind: 8 mph from Southeast

Location: Gander Int. Airport

Current Time: Jul 5, 2015 at 11:27:38 AM

Latest Report: Jul 5, 2015 at 10:30 AM


Visibility: 20 mi

Pressure: 30.02 "Hg

Humidity: 82%

Dew point: 50 °F

Location of GanderLocation

Historic Weather in Gander — Graph

°F

Gander temperature yesterday

Maximum temperature yesterday: 64 °F (at 2:30 PM)
Minimum temperature yesterday: 54 °F (at 11:30 PM)
Average temperature yesterday: 60 °F

Past Weeks' High & Low Weather Summary

 TemperatureHumidityPressure
High79 °F (Jun 28, 4:30 PM)100% (Jun 24, 1:30 AM)30.16 "Hg (Jun 24, 1:30 AM)
Low39 °F (Jun 23, 11:30 PM)31% (Jun 21, 4:30 PM)29.71 "Hg (Jul 4, 2:30 AM)
Average55 °F77%29.95 "Hg
* Reported Jun 20 9:30 AM — Jul 5 9:30 AM, Gander, Weather by CustomWeather, © 2015

Note: Actual official high and low records may vary slightly from our data, if they occured in-between our weather recording intervals... More about our weather records

Advertising

Gander weather history for previous 24 hours

 ConditionsComfort  
Time TempWeatherWind HumidityBarometerVisibility
9:30 AM
Sun, Jul 5
54 °FMostly cloudy.7 mph88%30.03 "Hg15 mi
8:30 AM54 °FMostly cloudy.6 mph88%30.03 "Hg15 mi
7:30 AM52 °FCloudy.7 mph94%30.02 "Hg15 mi
7:19 AM52 °FCloudy.6 mph94%30.03 "Hg15 mi
6:30 AM52 °FCloudy.5 mph94%30.03 "Hg15 mi
5:30 AM52 °FPassing clouds.No wind94%30.02 "Hg15 mi
4:30 AM52 °FPassing clouds.5 mph94%30.01 "Hg15 mi
3:30 AM54 °FOvercast.No wind94%30.01 "Hg15 mi
2:30 AM54 °FMostly cloudy.3 mph94%30.01 "Hg15 mi
1:30 AM54 °FMostly cloudy.5 mph88%30.01 "Hg15 mi
12:30 AM54 °FMostly cloudy.5 mph88%30.01 "Hg15 mi
11:30 PM
Sat, Jul 4
54 °FMostly cloudy.5 mph88%30.00 "Hg15 mi
10:30 PM55 °FPassing clouds.6 mph88%30.00 "Hg15 mi
9:30 PM57 °FPartly sunny.7 mph88%29.97 "Hg15 mi
8:30 PM61 °FPartly sunny.9 mph83%29.95 "Hg15 mi
7:30 PM64 °FPartly sunny.5 mph73%29.93 "Hg15 mi
6:30 PM64 °FPartly sunny.10 mph68%29.92 "Hg20 mi
5:30 PM64 °FBroken clouds.9 mph73%29.91 "Hg20 mi
4:30 PM64 °FOvercast.8 mph73%29.89 "Hg20 mi
3:30 PM64 °FOvercast.9 mph73%29.88 "Hg20 mi
2:30 PM64 °FPartly sunny.12 mph68%29.86 "Hg20 mi
1:30 PM63 °FOvercast.10 mph73%29.84 "Hg20 mi
12:30 PM63 °FPartly sunny.12 mph73%29.83 "Hg20 mi
11:30 AM63 °FPartly sunny.13 mph73%29.82 "Hg20 mi
Weather by CustomWeather, © 2015

See weather overviewHow to use our weather pages